This is the latest recevied weather packets stored in our database for station/object KD5BIG-13. If no packets are shown the sender has not sent any weather packets the latest 10 day(s).
| Time | Temp. | Humidity | Pressure | Rain* | Wind** | Luminosity | Snow |
|---|---|---|---|---|---|---|---|
| 1777408401 | 30.56° C | 62% | 1017.6 hPa | 0 mm | - | 727 W/m² | - |
| 1777408100 | 30.56° C | 64% | 1017.7 hPa | 0 mm | - | 743 W/m² | - |
| 1777407797 | 30.56° C | 65% | 1017.5 hPa | 0 mm | - | 723 W/m² | - |
| 1777407493 | 30° C | 66% | 1017.9 hPa | 0 mm | - | 760 W/m² | - |
| 1777407193 | 30° C | 69% | 1017.6 hPa | 0 mm | - | 768 W/m² | - |
| 1777406888 | 30° C | 66% | 1017.8 hPa | 0 mm | - | 807 W/m² | - |
| 1777406583 | 30° C | 68% | 1017.5 hPa | 0 mm | - | 783 W/m² | - |
| 1777406280 | 30° C | 70% | 1017.4 hPa | 0 mm | - | 829 W/m² | - |
| 1777405978 | 30° C | 73% | 1017.6 hPa | 0 mm | - | 822 W/m² | - |
| 1777405675 | 30° C | 67% | 1017.7 hPa | 0 mm | - | 843 W/m² | - |
| 1777405372 | 30° C | 72% | 1018 hPa | 0 mm | - | 859 W/m² | - |
| 1777405068 | 30° C | 69% | 1018.1 hPa | 0 mm | - | 910 W/m² | - |
| 1777404763 | 28.89° C | 73% | 1018.3 hPa | 0 mm | - | 1039 W/m² | - |
| 1777404459 | 28.89° C | 70% | 1018.6 hPa | 0 mm | - | 455 W/m² | - |
| 1777404155 | 28.89° C | 70% | 1019 hPa | 0 mm | - | 475 W/m² | - |
| 1777403851 | 29.44° C | 71% | 1018.9 hPa | 0 mm | - | 212 W/m² | - |
| 1777403547 | 30° C | 69% | 1018.9 hPa | 0 mm | - | 242 W/m² | - |
| 1777403247 | 29.44° C | 71% | 1018.5 hPa | 0 mm | - | 679 W/m² | - |
| 1777402946 | 28.89° C | 72% | 1018.5 hPa | 0 mm | - | 549 W/m² | - |
| 1777402642 | 28.89° C | 69% | 1018.8 hPa | 0 mm | - | 332 W/m² | - |
| 1777402341 | 28.89° C | 69% | 1018.8 hPa | 0 mm | - | 237 W/m² | - |
| 1777402040 | 28.89° C | 68% | 1018.7 hPa | 0 mm | - | 365 W/m² | - |
| 1777401740 | 28.89° C | 69% | 1019.1 hPa | 0 mm | - | 319 W/m² | - |
| 1777401436 | 28.89° C | 68% | 1019.1 hPa | 0 mm | - | 284 W/m² | - |
| 1777401132 | 28.89° C | 68% | 1019 hPa | 0 mm | - | 354 W/m² | - |
* Rain latest hour (hover to see other rain measurements)
** Current wind speed in m/s (hover to see current wind gust speed)